Location: Poughquag
(41.6090°N, 73.6820°W)
Time: 15:52:33
(UTC-05:00)

N. Korean satellite - Pass Details

Date: 17 January 2020
Orbit: 456 x 505 km, 97.2° (Epoch: 24 February)

Event Time Altitude Azimuth Distance (km) Brightness Sun altitude
Rises 17:53:30 0° 207° (SSW) 2,477 10.9 -11.5°
Reaches altitude 10° 17:56:17 10° 233° (SW) 1,602 10.4 -12.0°
Maximum altitude 17:58:14 14° 267° (W) 1,355 10.0 -12.4°
Drops below altitude 10° 18:00:11 10° 302° (WNW) 1,604 9.8 -12.7°
Sets 18:02:59 0° 328° (NNW) 2,482 10.4 -13.2°
